| time (UTC) | temp F | wind direction | speed knots | gust knots | rain 1hr in | rain 24hr in | rain mn in | humidity % | barometer mb |
| 20260508143819 | 48 | 180 | 0.9 | 3.5 | 0.00 | 0.00 | 0.00 | 81 | 1020.4 |
| 20260508143814 | 48 | 183 | 0.9 | 3.5 | 0.00 | 0.00 | 0.00 | 81 | 1020.6 |
| 20260508142814 | 48 | 173 | 1.7 | 3.5 | 0.00 | 0.00 | 0.00 | 82 | 1020.4 |
| 20260508142313 | 49 | 172 | 1.7 | 3.5 | 0.00 | 0.00 | 0.00 | 82 | 1020.4 |
| 20260508141813 | 49 | 164 | 1.7 | 3.5 | 0.00 | 0.00 | 0.00 | 82 | 1020.4 |
| 20260508141313 | 49 | 165 | 0.9 | 3.5 | 0.00 | 0.00 | 0.00 | 82 | 1020.4 |
| 20260508140814 | 49 | 177 | 0.9 | 1.7 | 0.00 | 0.00 | 0.00 | 82 | 1020.4 |
| 20260508140313 | 49 | 238 | 0.0 | 1.7 | 0.00 | 0.00 | 0.00 | 82 | 1020.5 |
| 20260508135815 | 49 | 238 | 0.0 | 1.7 | 0.00 | 0.00 | 0.00 | 82 | 1020.4 |
| 20260508135315 | 49 | 238 | 0.0 | 1.7 | 0.00 | 0.00 | 0.00 | 81 | 1020.4 |
| 20260508134813 | 49 | 238 | 0.9 | 3.5 | 0.00 | 0.00 | 0.00 | 82 | 1020.4 |
| 20260508134309 | 49 | 240 | 0.9 | 3.5 | 0.00 | 0.00 | 0.00 | 82 | 1020.3 |
| 20260508133808 | 49 | 252 | 0.9 | 4.3 | 0.00 | 0.00 | 0.00 | 81 | 1020.4 |
| 20260508133308 | 49 | 235 | 1.7 | 4.3 | 0.00 | 0.00 | 0.00 | 82 | 1020.4 |
| 20260508132805 | 49 | 260 | 1.7 | 5.2 | 0.00 | 0.00 | 0.00 | 82 | 1020.3 |
| 20260508132306 | 49 | 261 | 1.7 | 6.1 | 0.00 | 0.00 | 0.00 | 82 | 1020.2 |
| 20260508131811 | 49 | 257 | 0.9 | 6.1 | 0.00 | 0.00 | 0.00 | 83 | 1020.0 |
| 20260508131806 | 49 | 310 | 1.7 | 6.1 | 0.00 | 0.00 | 0.00 | 83 | 1020.0 |
| 20260508130805 | 49 | 252 | 0.9 | 3.5 | 0.00 | 0.00 | 0.00 | 83 | 1020.0 |
| 20260508130305 | 49 | 250 | 1.7 | 6.1 | 0.00 | 0.00 | 0.00 | 82 | 1019.8 |
| 20260508125805 | 49 | 280 | 1.7 | 6.1 | 0.00 | 0.00 | 0.00 | 82 | 1019.8 |
| 20260508125306 | 49 | 252 | 1.7 | 4.3 | 0.00 | 0.00 | 0.00 | 82 | 1019.8 |
| 20260508124805 | 49 | 264 | 1.7 | 8.7 | 0.00 | 0.00 | 0.00 | 81 | 1019.7 |
| 20260508124305 | 49 | 286 | 1.7 | 8.7 | 0.00 | 0.00 | 0.00 | 81 | 1019.6 |
| 20260508123802 | 49 | 269 | 2.6 | 7.8 | 0.00 | 0.00 | 0.00 | 81 | 1019.6 |
| 20260508123304 | 49 | 306 | 2.6 | 7.8 | 0.00 | 0.00 | 0.00 | 82 | 1019.6 |
| 20260508122809 | 48 | 300 | 1.7 | 6.1 | 0.00 | 0.00 | 0.00 | 82 | 1019.5 |
| 20260508122804 | 48 | 261 | 1.7 | 6.1 | 0.00 | 0.00 | 0.00 | 82 | 1019.4 |
| 20260508121803 | 48 | 304 | 1.7 | 6.1 | 0.00 | 0.00 | 0.00 | 82 | 1019.3 |
| 20260508121303 | 48 | 238 | 1.7 | 6.1 | 0.00 | 0.00 | 0.00 | 83 | 1019.4 |
| 20260508120803 | 48 | 250 | 1.7 | 5.2 | 0.00 | 0.00 | 0.00 | 83 | 1019.3 |
| 20260508120309 | 48 | 271 | 0.9 | 5.2 | 0.00 | 0.00 | 0.00 | 83 | 1019.2 |
| 20260508120303 | 48 | 225 | 0.9 | 4.3 | 0.00 | 0.00 | 0.00 | 83 | 1019.2 |
| 20260508115306 | 48 | 254 | 0.9 | 5.2 | 0.00 | 0.00 | 0.00 | 83 | 1019.1 |
| 20260508114800 | 48 | 248 | 1.7 | 4.3 | 0.00 | 0.00 | 0.00 | 83 | 1019.0 |
| 20260508114303 | 48 | 265 | 1.7 | 4.3 | 0.00 | 0.00 | 0.00 | 83 | 1019.0 |
| 20260508113801 | 48 | 252 | 0.9 | 4.3 | 0.00 | 0.00 | 0.00 | 83 | 1019.0 |
| 20260508113301 | 48 | 232 | 0.9 | 4.3 | 0.00 | 0.00 | 0.00 | 83 | 1019.0 |
| 20260508112800 | 48 | 263 | 0.9 | 4.3 | 0.00 | 0.00 | 0.00 | 83 | 1019.0 |
| 20260508112301 | 48 | 252 | 1.7 | 6.1 | 0.00 | 0.00 | 0.00 | 83 | 1019.0 |
| 20260508111806 | 48 | 319 | 0.9 | 5.2 | 0.00 | 0.00 | 0.00 | 84 | 1019.0 |
| 20260508111802 | 48 | 246 | 1.7 | 6.1 | 0.00 | 0.00 | 0.00 | 83 | 1018.9 |
| 20260508110803 | 48 | 273 | 1.7 | 7.8 | 0.00 | 0.00 | 0.00 | 84 | 1019.0 |
| 20260508110300 | 48 | 242 | 1.7 | 7.8 | 0.00 | 0.00 | 0.00 | 84 | 1018.9 |
| 20260508105759 | 48 | 224 | 0.9 | 5.2 | 0.00 | 0.00 | 0.00 | 84 | 1018.7 |
| 20260508105300 | 48 | 275 | 0.9 | 7.0 | 0.00 | 0.00 | 0.00 | 85 | 1018.7 |
| 20260508104759 | 48 | 259 | 0.9 | 7.0 | 0.00 | 0.00 | 0.00 | 85 | 1018.7 |
| 20260508104301 | 48 | 268 | 0.9 | 4.3 | 0.00 | 0.00 | 0.00 | 85 | 1018.5 |
| 20260508103759 | 48 | 247 | 0.9 | 3.5 | 0.00 | 0.00 | 0.00 | 85 | 1018.5 |
| 20260508103305 | 48 | 267 | 1.7 | 6.1 | 0.00 | 0.00 | 0.00 | 85 | 1018.5 |
| 20260508103300 | 48 | 238 | 1.7 | 6.1 | 0.00 | 0.00 | 0.00 | 85 | 1018.5 |
| 20260508102259 | 48 | 269 | 1.7 | 4.3 | 0.00 | 0.00 | 0.00 | 86 | 1018.4 |
| 20260508101802 | 48 | 256 | 0.9 | 6.1 | 0.00 | 0.00 | 0.00 | 86 | 1018.5 |
| 20260508101757 | 48 | 256 | 1.7 | 4.3 | 0.00 | 0.00 | 0.00 | 86 | 1018.4 |
| 20260508100802 | 48 | 250 | 1.7 | 5.2 | 0.00 | 0.00 | 0.00 | 86 | 1018.5 |
| 20260508100757 | 48 | 238 | 1.7 | 6.1 | 0.00 | 0.00 | 0.00 | 86 | 1018.5 |
| 20260508095757 | 48 | 256 | 2.6 | 7.8 | 0.00 | 0.00 | 0.00 | 86 | 1018.4 |
| 20260508095257 | 48 | 222 | 2.6 | 7.8 | 0.00 | 0.00 | 0.00 | 86 | 1018.4 |
| 20260508094758 | 47 | 211 | 2.6 | 8.7 | 0.00 | 0.00 | 0.00 | 87 | 1018.4 |
| 20260508094255 | 47 | 252 | 2.6 | 8.7 | 0.00 | 0.00 | 0.00 | 87 | 1018.3 |
| 20260508093756 | 47 | 173 | 3.5 | 7.8 | 0.00 | 0.00 | 0.00 | 87 | 1018.2 |
| 20260508093300 | 47 | 217 | 3.5 | 7.0 | 0.00 | 0.00 | 0.00 | 87 | 1018.0 |
| 20260508093256 | 47 | 223 | 3.5 | 7.8 | 0.00 | 0.00 | 0.00 | 87 | 1018.1 |
| 20260508092906 | 47 | 221 | 3.5 | 8.7 | 0.00 | 0.00 | 0.00 | 87 | 1018.1 |
| 20260508091754 | 47 | 208 | 4.3 | 8.7 | 0.00 | 0.00 | 0.00 | 87 | 1018.0 |
| 20260508091253 | 47 | 235 | 4.3 | 8.7 | 0.00 | 0.00 | 0.00 | 87 | 1018.0 |
| 20260508090752 | 47 | 229 | 3.5 | 8.7 | 0.00 | 0.00 | 0.00 | 87 | 1018.0 |
| 20260508090252 | 47 | 256 | 3.5 | 8.7 | 0.00 | 0.00 | 0.00 | 87 | 1017.9 |
| 20260508085752 | 47 | 205 | 3.5 | 8.7 | 0.00 | 0.00 | 0.00 | 87 | 1017.7 |
| 20260508085252 | 47 | 216 | 4.3 | 7.8 | 0.00 | 0.00 | 0.00 | 87 | 1017.6 |
| 20260508084757 | 47 | 205 | 4.3 | 8.7 | 0.00 | 0.00 | 0.00 | 87 | 1017.6 |
| 20260508084751 | 47 | 240 | 4.3 | 7.8 | 0.00 | 0.00 | 0.00 | 87 | 1017.6 |
| 20260508083749 | 47 | 222 | 4.3 | 8.7 | 0.00 | 0.00 | 0.00 | 87 | 1017.6 |
| 20260508083249 | 47 | 203 | 4.3 | 8.7 | 0.00 | 0.00 | 0.00 | 87 | 1017.7 |
| 20260508082750 | 47 | 225 | 3.5 | 8.7 | 0.00 | 0.00 | 0.00 | 87 | 1017.7 |
| 20260508082250 | 47 | 210 | 2.6 | 7.8 | 0.00 | 0.00 | 0.00 | 87 | 1017.7 |
| 20260508081748 | 47 | 212 | 2.6 | 7.0 | 0.00 | 0.00 | 0.00 | 87 | 1017.7 |
| 20260508081249 | 47 | 241 | 1.7 | 7.0 | 0.00 | 0.00 | 0.00 | 87 | 1017.7 |
| 20260508080750 | 47 | 298 | 1.7 | 8.7 | 0.00 | 0.00 | 0.00 | 87 | 1017.5 |
| 20260508080248 | 47 | 216 | 1.7 | 8.7 | 0.00 | 0.00 | 0.00 | 87 | 1017.5 |
| 20260508075752 | 47 | 192 | 1.7 | 7.8 | 0.00 | 0.00 | 0.00 | 86 | 1017.4 |
| 20260508075747 | 47 | 209 | 2.6 | 7.8 | 0.00 | 0.00 | 0.00 | 86 | 1017.4 |
| 20260508074748 | 47 | 220 | 3.5 | 7.8 | 0.00 | 0.00 | 0.00 | 86 | 1017.3 |
| 20260508074244 | 47 | 203 | 1.7 | 7.8 | 0.00 | 0.00 | 0.00 | 86 | 1017.3 |
| 20260508073745 | 47 | 250 | 1.7 | 5.2 | 0.00 | 0.00 | 0.00 | 86 | 1017.4 |
| 20260508073248 | 47 | 246 | 1.7 | 7.8 | 0.00 | 0.00 | 0.00 | 85 | 1017.4 |
| 20260508073244 | 47 | 254 | 1.7 | 5.2 | 0.00 | 0.00 | 0.00 | 86 | 1017.3 |
| 20260508072245 | 47 | 236 | 1.7 | 7.8 | 0.00 | 0.00 | 0.00 | 85 | 1017.3 |
| 20260508071744 | 48 | 266 | 1.7 | 7.0 | 0.00 | 0.00 | 0.00 | 85 | 1017.3 |
| 20260508071244 | 48 | 214 | 2.6 | 11.3 | 0.00 | 0.00 | 0.00 | 84 | 1017.2 |
| 20260508070744 | 48 | 229 | 4.3 | 11.3 | 0.00 | 0.00 | 0.00 | 84 | 1017.2 |
| 20260508070245 | 48 | 210 | 4.3 | 8.7 | 0.00 | 0.00 | 0.00 | 84 | 1017.2 |
| 20260508065746 | 48 | 229 | 4.3 | 10.4 | 0.00 | 0.00 | 0.00 | 84 | 1017.2 |
| 20260508065249 | 48 | 221 | 2.6 | 7.0 | 0.00 | 0.00 | 0.00 | 84 | 1017.2 |
| 20260508065245 | 48 | 231 | 3.5 | 10.4 | 0.00 | 0.00 | 0.00 | 84 | 1017.1 |
| 20260508064245 | 48 | 246 | 2.6 | 7.0 | 0.00 | 0.00 | 0.00 | 84 | 1017.2 |
| 20260508063746 | 48 | 205 | 3.5 | 7.8 | 0.00 | 0.00 | 0.00 | 83 | 1017.2 |
| 20260508063251 | 49 | 231 | 3.5 | 7.8 | 0.00 | 0.00 | 0.00 | 83 | 1017.2 |
| 20260508063246 | 49 | 234 | 3.5 | 7.8 | 0.00 | 0.00 | 0.00 | 83 | 1017.2 |
| 20260508062244 | 49 | 228 | 3.5 | 7.0 | 0.00 | 0.00 | 0.00 | 82 | 1017.2 |
| 20260508061743 | 49 | 191 | 3.5 | 7.0 | 0.00 | 0.00 | 0.00 | 82 | 1017.2 |
| 20260508061244 | 49 | 208 | 2.6 | 6.1 | 0.00 | 0.00 | 0.00 | 82 | 1017.2 |
| 20260508060744 | 49 | 273 | 3.5 | 6.1 | 0.00 | 0.00 | 0.00 | 81 | 1017.2 |
| 20260508060243 | 49 | 227 | 3.5 | 7.8 | 0.00 | 0.00 | 0.00 | 81 | 1017.3 |
| 20260508055743 | 49 | 234 | 3.5 | 7.8 | 0.00 | 0.00 | 0.00 | 81 | 1017.2 |
| 20260508055249 | 50 | 191 | 3.5 | 9.6 | 0.00 | 0.00 | 0.00 | 80 | 1017.2 |
| 20260508055243 | 49 | 219 | 3.5 | 9.6 | 0.00 | 0.00 | 0.00 | 81 | 1017.2 |
| 20260508054856 | 50 | 219 | 3.5 | 10.4 | 0.00 | 0.00 | 0.00 | 80 | 1017.2 |
| 20260508053747 | 50 | 263 | 2.6 | 7.8 | 0.00 | 0.00 | 0.00 | 79 | 1017.2 |
| 20260508053742 | 50 | 246 | 2.6 | 10.4 | 0.00 | 0.00 | 0.00 | 80 | 1017.3 |
| 20260508053241 | 50 | 277 | 2.6 | 7.8 | 0.00 | 0.00 | 0.00 | 79 | 1017.2 |
| 20260508052855 | 50 | 297 | 2.6 | 7.8 | 0.00 | 0.00 | 0.00 | 79 | 1017.2 |
| 20260508051742 | 51 | 211 | 2.6 | 7.0 | 0.00 | 0.00 | 0.00 | 79 | 1017.2 |
| 20260508051242 | 51 | 222 | 2.6 | 8.7 | 0.00 | 0.00 | 0.00 | 78 | 1017.2 |
| 20260508050742 | 51 | 207 | 2.6 | 8.7 | 0.00 | 0.00 | 0.00 | 78 | 1017.2 |
| 20260508050238 | 51 | 220 | 2.6 | 9.6 | 0.00 | 0.00 | 0.00 | 77 | 1017.1 |
| 20260508045740 | 51 | 257 | 2.6 | 9.6 | 0.00 | 0.00 | 0.00 | 77 | 1017.0 |
| 20260508045240 | 51 | 223 | 2.6 | 8.7 | 0.00 | 0.00 | 0.00 | 77 | 1017.0 |
| 20260508044743 | 52 | 215 | 1.7 | 6.1 | 0.00 | 0.00 | 0.00 | 76 | 1017.0 |
| 20260508044739 | 51 | 215 | 2.6 | 6.1 | 0.00 | 0.00 | 0.00 | 76 | 1017.0 |
| 20260508043739 | 52 | 310 | 1.7 | 6.1 | 0.00 | 0.00 | 0.00 | 76 | 1017.1 |
| 20260508043239 | 52 | 243 | 1.7 | 6.1 | 0.00 | 0.00 | 0.00 | 75 | 1017.1 |
| 20260508042738 | 52 | 254 | 1.7 | 6.1 | 0.00 | 0.00 | 0.00 | 75 | 1017.0 |
| 20260508042239 | 53 | 236 | 1.7 | 5.2 | 0.00 | 0.00 | 0.00 | 75 | 1017.1 |
| 20260508041740 | 53 | 257 | 1.7 | 4.3 | 0.00 | 0.00 | 0.00 | 74 | 1017.1 |
| 20260508041237 | 53 | 259 | 1.7 | 4.3 | 0.00 | 0.00 | 0.00 | 74 | 1017.1 |
| 20260508040736 | 53 | 240 | 1.7 | 7.0 | 0.00 | 0.00 | 0.00 | 74 | 1017.0 |
| 20260508040237 | 54 | 238 | 1.7 | 7.0 | 0.00 | 0.00 | 0.00 | 73 | 1017.0 |
| 20260508035736 | 54 | 255 | 0.9 | 4.3 | 0.00 | 0.00 | 0.00 | 73 | 1017.0 |
| 20260508035238 | 54 | 242 | 1.7 | 7.8 | 0.00 | 0.00 | 0.00 | 72 | 1016.8 |
| 20260508034737 | 55 | 250 | 2.6 | 7.8 | 0.00 | 0.00 | 0.00 | 71 | 1016.7 |
| 20260508034238 | 55 | 228 | 2.6 | 7.8 | 0.00 | 0.00 | 0.00 | 70 | 1016.7 |
| 20260508033738 | 56 | 224 | 3.5 | 8.7 | 0.00 | 0.00 | 0.00 | 69 | 1016.6 |
| 20260508033238 | 56 | 211 | 4.3 | 8.7 | 0.00 | 0.00 | 0.00 | 68 | 1016.4 |
| 20260508032736 | 56 | 226 | 3.5 | 7.8 | 0.00 | 0.00 | 0.00 | 68 | 1016.4 |
| 20260508032235 | 57 | 261 | 3.5 | 7.8 | 0.00 | 0.00 | 0.00 | 67 | 1016.3 |
| 20260508031735 | 57 | 212 | 4.3 | 7.8 | 0.00 | 0.00 | 0.00 | 66 | 1016.3 |
| 20260508031236 | 57 | 227 | 3.5 | 7.0 | 0.00 | 0.00 | 0.00 | 66 | 1016.2 |
| 20260508030736 | 58 | 218 | 1.7 | 6.1 | 0.00 | 0.00 | 0.00 | 66 | 1016.2 |
| 20260508030239 | 59 | 238 | 1.7 | 7.8 | 0.00 | 0.00 | 0.00 | 64 | 1016.1 |
| 20260508030235 | 58 | 217 | 0.9 | 4.3 | 0.00 | 0.00 | 0.00 | 65 | 1016.1 |
| 20260508025240 | 60 | 225 | 1.7 | 7.0 | 0.00 | 0.00 | 0.00 | 61 | 1016.2 |
| 20260508025233 | 59 | 235 | 2.6 | 7.8 | 0.00 | 0.00 | 0.00 | 64 | 1016.2 |
| 20260508024733 | 60 | 217 | 1.7 | 7.0 | 0.00 | 0.00 | 0.00 | 62 | 1016.2 |
| 20260508023733 | 60 | 195 | 1.7 | 5.2 | 0.00 | 0.00 | 0.00 | 60 | 1016.2 |
| 20260508023233 | 61 | 246 | 1.7 | 6.1 | 0.00 | 0.00 | 0.00 | 59 | 1016.2 |
| 20260508022734 | 61 | 240 | 1.7 | 6.1 | 0.00 | 0.00 | 0.00 | 59 | 1016.2 |
| 20260508022237 | 61 | 241 | 1.7 | 6.1 | 0.00 | 0.00 | 0.00 | 60 | 1016.2 |
| 20260508022233 | 61 | 279 | 2.6 | 6.1 | 0.00 | 0.00 | 0.00 | 59 | 1016.2 |
| 20260508021233 | 62 | 303 | 2.6 | 7.8 | 0.00 | 0.00 | 0.00 | 60 | 1016.2 |
| 20260508020733 | 62 | 296 | 2.6 | 7.8 | 0.00 | 0.00 | 0.00 | 58 | 1016.2 |
| 20260508020234 | 63 | 250 | 1.7 | 7.0 | 0.00 | 0.00 | 0.00 | 59 | 1016.1 |
| 20260508015734 | 63 | 271 | 2.6 | 7.8 | 0.00 | 0.00 | 0.00 | 60 | 1016.1 |
| 20260508015238 | 64 | 242 | 1.7 | 7.8 | 0.00 | 0.00 | 0.00 | 60 | 1016.0 |
| 20260508015234 | 64 | 248 | 1.7 | 7.8 | 0.00 | 0.00 | 0.00 | 60 | 1016.1 |
| 20260508014233 | 64 | 215 | 1.7 | 7.8 | 0.00 | 0.00 | 0.00 | 60 | 1016.1 |
| 20260508013732 | 64 | 203 | 2.6 | 7.8 | 0.00 | 0.00 | 0.00 | 60 | 1016.1 |
| 20260508013232 | 65 | 240 | 3.5 | 7.8 | 0.00 | 0.00 | 0.00 | 57 | 1016.0 |
| 20260508012733 | 65 | 221 | 3.5 | 7.8 | 0.00 | 0.00 | 0.00 | 57 | 1016.0 |
| 20260508012233 | 66 | 232 | 3.5 | 8.7 | 0.00 | 0.00 | 0.00 | 57 | 1016.1 |
| 20260508011734 | 66 | 148 | 2.6 | 8.7 | 0.00 | 0.00 | 0.00 | 56 | 1016.2 |
| 20260508011232 | 66 | 309 | 3.5 | 7.8 | 0.00 | 0.00 | 0.00 | 57 | 1016.3 |
| 20260508010734 | 67 | 194 | 4.3 | 8.7 | 0.00 | 0.00 | 0.00 | 57 | 1016.3 |
| 20260508010232 | 67 | 214 | 4.3 | 9.6 | 0.00 | 0.00 | 0.00 | 56 | 1016.4 |
| 20260508005732 | 67 | 250 | 3.5 | 9.6 | 0.00 | 0.00 | 0.00 | 56 | 1016.3 |
| 20260508005233 | 68 | 263 | 2.6 | 7.8 | 0.00 | 0.00 | 0.00 | 55 | 1016.3 |
| 20260508004738 | 68 | 282 | 2.6 | 6.1 | 0.00 | 0.00 | 0.00 | 57 | 1016.2 |
| 20260508004732 | 68 | 227 | 1.7 | 7.8 | 0.00 | 0.00 | 0.00 | 56 | 1016.2 |
| 20260508004232 | 68 | 318 | 1.7 | 6.1 | 0.00 | 0.00 | 0.00 | 58 | 1016.2 |
| 20260508003232 | 69 | 286 | 2.6 | 7.8 | 0.00 | 0.00 | 0.00 | 55 | 1016.2 |
| 20260508002732 | 69 | 215 | 2.6 | 7.8 | 0.00 | 0.00 | 0.00 | 54 | 1016.3 |
| 20260508002232 | 70 | 247 | 1.7 | 7.8 | 0.00 | 0.00 | 0.00 | 56 | 1016.2 |
| 20260508001732 | 70 | 273 | 1.7 | 7.8 | 0.00 | 0.00 | 0.00 | 56 | 1016.3 |
| 20260508001232 | 70 | 282 | 1.7 | 6.1 | 0.00 | 0.00 | 0.00 | 55 | 1016.3 |
| 20260508000732 | 70 | 276 | 2.6 | 8.7 | 0.00 | 0.00 | 0.00 | 53 | 1016.4 |
| 20260508000238 | 71 | 237 | 3.5 | 10.4 | 0.00 | 0.00 | 0.00 | 56 | 1016.4 |
| 20260508000234 | 70 | 285 | 1.7 | 9.6 | 0.00 | 0.00 | 0.00 | 56 | 1016.3 |
| 20260507235730 | 70 | 229 | 1.7 | 9.6 | 0.00 | 0.00 | 0.00 | 55 | 1016.4 |
| 20260507234734 | 71 | 173 | 1.7 | 7.8 | 0.00 | 0.00 | 0.00 | 56 | 1016.1 |
| 20260507234730 | 71 | 286 | 3.5 | 10.4 | 0.00 | 0.00 | 0.00 | 57 | 1016.4 |
| 20260507234343 | 71 | 166 | 1.7 | 5.2 | 0.00 | 0.00 | 0.00 | 52 | 1016.3 |
| 20260507233843 | 72 | 202 | 0.9 | 5.2 | 0.00 | 0.00 | 0.00 | 53 | 1016.4 |
| 20260507232736 | 72 | 185 | 0.9 | 3.5 | 0.00 | 0.00 | 0.00 | 56 | 1016.6 |
| 20260507232730 | 72 | 153 | 0.9 | 3.5 | 0.00 | 0.00 | 0.00 | 53 | 1016.4 |
| 20260507232344 | 71 | 157 | 0.9 | 3.5 | 0.00 | 0.00 | 0.00 | 55 | 1016.7 |
| 20260507231844 | 71 | 53 | 0.9 | 3.5 | 0.00 | 0.00 | 0.00 | 54 | 1016.7 |
| 20260507230733 | 70 | 9 | 0.9 | 4.3 | 0.00 | 0.00 | 0.00 | 59 | 1016.9 |
| 20260507230728 | 70 | 80 | 0.9 | 3.5 | 0.00 | 0.00 | 0.00 | 54 | 1016.8 |
| 20260507225728 | 70 | 331 | 0.9 | 4.3 | 0.00 | 0.00 | 0.00 | 56 | 1017.0 |
| 20260507225229 | 70 | 302 | 0.9 | 3.5 | 0.00 | 0.00 | 0.00 | 56 | 1017.1 |
| 20260507224732 | 69 | 329 | 0.9 | 2.6 | 0.00 | 0.00 | 0.00 | 59 | 1017.3 |
| 20260507224727 | 69 | 255 | 0.9 | 2.6 | 0.00 | 0.00 | 0.00 | 57 | 1017.2 |
| 20260507223729 | 69 | 262 | 1.7 | 5.2 | 0.00 | 0.00 | 0.00 | 57 | 1017.3 |
| 20260507223724 | 68 | 54 | 1.7 | 5.2 | 0.00 | 0.00 | 0.00 | 59 | 1017.5 |
| 20260507222722 | 68 | 17 | 1.7 | 3.5 | 0.00 | 0.00 | 0.00 | 58 | 1017.5 |
| 20260507222222 | 68 | 29 | 1.7 | 3.5 | 0.00 | 0.00 | 0.00 | 56 | 1017.5 |
| 20260507221722 | 68 | 329 | 1.7 | 3.5 | 0.00 | 0.00 | 0.00 | 58 | 1017.6 |
| 20260507221221 | 68 | 219 | 1.7 | 5.2 | 0.00 | 0.00 | 0.00 | 55 | 1017.7 |
| 20260507220722 | 68 | 187 | 1.7 | 5.2 | 0.00 | 0.00 | 0.00 | 57 | 1017.7 |
| 20260507220223 | 67 | 172 | 1.7 | 5.2 | 0.00 | 0.00 | 0.00 | 61 | 1017.7 |
| 20260507215722 | 67 | 185 | 1.7 | 5.2 | 0.00 | 0.00 | 0.00 | 58 | 1017.8 |
| 20260507215221 | 67 | 168 | 0.9 | 3.5 | 0.00 | 0.00 | 0.00 | 56 | 1017.9 |
| 20260507214726 | 67 | 38 | 0.9 | 5.2 | 0.00 | 0.00 | 0.00 | 62 | 1018.1 |
| 20260507214722 | 68 | 165 | 0.9 | 3.5 | 0.00 | 0.00 | 0.00 | 59 | 1018.0 |
| 20260507213721 | 67 | 280 | 0.9 | 5.2 | 0.00 | 0.00 | 0.00 | 58 | 1018.1 |
| 20260507213226 | 67 | 65 | 1.7 | 6.1 | 0.00 | 0.00 | 0.00 | 62 | 1018.1 |
| 20260507213222 | 67 | 138 | 0.9 | 6.1 | 0.00 | 0.00 | 0.00 | 62 | 1018.2 |
| 20260507212221 | 67 | 331 | 0.9 | 5.2 | 0.00 | 0.00 | 0.00 | 60 | 1018.3 |
| 20260507211720 | 67 | 166 | 0.9 | 5.2 | 0.00 | 0.00 | 0.00 | 65 | 1018.2 |
| 20260507211221 | 66 | 132 | 1.7 | 7.0 | 0.00 | 0.00 | 0.00 | 65 | 1018.3 |
| 20260507210720 | 66 | 184 | 1.7 | 7.0 | 0.00 | 0.00 | 0.00 | 61 | 1018.4 |
| 20260507210222 | 65 | 0 | 1.7 | 6.1 | 0.00 | 0.00 | 0.00 | 62 | 1018.5 |
| 20260507210218 | 65 | 169 | 1.7 | 6.1 | 0.00 | 0.00 | 0.00 | 58 | 1018.4 |
| 20260507205219 | 65 | 166 | 2.6 | 6.1 | 0.00 | 0.00 | 0.00 | 61 | 1018.6 |
| 20260507204723 | 66 | 13 | 0.9 | 5.2 | 0.00 | 0.00 | 0.00 | 62 | 1018.7 |
| 20260507204717 | 66 | 180 | 1.7 | 5.2 | 0.00 | 0.00 | 0.00 | 61 | 1018.6 |
| 20260507203718 | 65 | 59 | 0.9 | 5.2 | 0.00 | 0.00 | 0.00 | 62 | 1018.7 |
| 20260507203218 | 65 | 59 | 1.7 | 6.1 | 0.00 | 0.00 | 0.00 | 63 | 1018.8 |
| 20260507202723 | 65 | 163 | 0.9 | 3.5 | 0.00 | 0.00 | 0.00 | 67 | 1018.9 |
| 20260507202717 | 65 | 16 | 1.7 | 6.1 | 0.00 | 0.00 | 0.00 | 63 | 1018.8 |
| 20260507201718 | 65 | 18 | 1.7 | 3.5 | 0.00 | 0.00 | 0.00 | 62 | 1018.9 |
| 20260507201221 | 64 | 62 | 0.9 | 4.3 | 0.00 | 0.00 | 0.00 | 65 | 1019.1 |
| 20260507201217 | 64 | 9 | 1.7 | 3.5 | 0.00 | 0.00 | 0.00 | 65 | 1019.0 |
| 20260507200217 | 64 | 277 | 0.9 | 4.3 | 0.00 | 0.00 | 0.00 | 61 | 1019.1 |
| 20260507195721 | 64 | 169 | 1.7 | 4.3 | 0.00 | 0.00 | 0.00 | 64 | 1019.2 |
| 20260507195716 | 64 | 178 | 1.7 | 6.1 | 0.00 | 0.00 | 0.00 | 65 | 1019.3 |
| 20260507195329 | 64 | 166 | 1.7 | 6.1 | 0.00 | 0.00 | 0.00 | 65 | 1019.3 |
| 20260507194216 | 64 | 326 | 1.7 | 4.3 | 0.00 | 0.00 | 0.00 | 67 | 1019.3 |
| 20260507193717 | 64 | 5 | 1.7 | 4.3 | 0.00 | 0.00 | 0.00 | 64 | 1019.4 |
| 20260507193214 | 63 | 340 | 2.6 | 6.1 | 0.00 | 0.00 | 0.00 | 68 | 1019.4 |
| 20260507192715 | 63 | 333 | 2.6 | 6.1 | 0.00 | 0.00 | 0.00 | 68 | 1019.4 |
| 20260507192213 | 63 | 25 | 0.9 | 5.2 | 0.00 | 0.00 | 0.00 | 64 | 1019.5 |
| 20260507191718 | 63 | 185 | 0.9 | 3.5 | 0.00 | 0.00 | 0.00 | 66 | 1019.6 |
| 20260507191714 | 63 | 112 | 0.9 | 5.2 | 0.00 | 0.00 | 0.00 | 70 | 1019.6 |
| 20260507190713 | 63 | 213 | 0.9 | 3.5 | 0.00 | 0.00 | 0.00 | 66 | 1019.7 |
| 20260507190212 | 62 | 46 | 1.7 | 3.5 | 0.00 | 0.00 | 0.00 | 64 | 1019.7 |
| 20260507185712 | 62 | 204 | 1.7 | 7.0 | 0.00 | 0.00 | 0.00 | 65 | 1019.7 |
| 20260507185216 | 62 | 5 | 1.7 | 7.0 | 0.00 | 0.00 | 0.00 | 68 | 1019.9 |
| 20260507185210 | 62 | 14 | 2.6 | 7.8 | 0.00 | 0.00 | 0.00 | 66 | 1019.9 |
| 20260507184208 | 62 | 5 | 3.5 | 7.8 | 0.00 | 0.00 | 0.00 | 69 | 1019.9 |
| 20260507183709 | 62 | 21 | 1.7 | 7.0 | 0.00 | 0.00 | 0.00 | 72 | 1019.8 |
| 20260507183207 | 62 | 291 | 0.9 | 3.5 | 0.00 | 0.00 | 0.00 | 69 | 1019.9 |
| 20260507182708 | 61 | 204 | 0.9 | 3.5 | 0.00 | 0.00 | 0.00 | 71 | 1019.9 |
| 20260507182207 | 60 | 248 | 0.9 | 2.6 | 0.00 | 0.00 | 0.00 | 72 | 1019.9 |
| 20260507181713 | 59 | 179 | 0.9 | 3.5 | 0.00 | 0.00 | 0.00 | 70 | 1020.1 |
| 20260507181708 | 60 | 245 | 0.9 | 3.5 | 0.00 | 0.00 | 0.00 | 69 | 1020.0 |
| 20260507180709 | 58 | 177 | 0.9 | 3.5 | 0.00 | 0.00 | 0.00 | 72 | 1020.1 |
| 20260507180212 | 58 | 30 | 0.9 | 2.6 | 0.00 | 0.00 | 0.00 | 72 | 1020.2 |
| 20260507180208 | 58 | 35 | 0.0 | 1.7 | 0.00 | 0.00 | 0.00 | 70 | 1020.1 |
| 20260507175206 | 58 | 31 | 0.9 | 2.6 | 0.00 | 0.00 | 0.00 | 74 | 1020.2 |
| 20260507174705 | 58 | 312 | 1.7 | 5.2 | 0.00 | 0.00 | 0.00 | 71 | 1020.3 |
| 20260507174205 | 59 | 11 | 2.6 | 5.2 | 0.00 | 0.00 | 0.00 | 72 | 1020.2 |
| 20260507173703 | 59 | 349 | 2.6 | 6.1 | 0.00 | 0.00 | 0.00 | 71 | 1020.3 |
| 20260507173203 | 59 | 329 | 2.6 | 6.1 | 0.00 | 0.00 | 0.00 | 72 | 1020.3 |
| 20260507172704 | 59 | 0 | 2.6 | 5.2 | 0.00 | 0.00 | 0.00 | 75 | 1020.4 |
| 20260507172204 | 58 | 10 | 1.7 | 4.3 | 0.00 | 0.00 | 0.00 | 77 | 1020.4 |
| 20260507171704 | 57 | 279 | 0.9 | 3.5 | 0.00 | 0.00 | 0.00 | 74 | 1020.4 |
| 20260507171207 | 56 | 323 | 0.0 | 1.7 | 0.00 | 0.00 | 0.00 | 78 | 1020.3 |
| 20260507171203 | 56 | 324 | 0.0 | 1.7 | 0.00 | 0.00 | 0.00 | 78 | 1020.4 |
| 20260507170205 | 56 | 322 | 0.0 | 1.7 | 0.00 | 0.00 | 0.00 | 79 | 1020.3 |
| 20260507165704 | 56 | 321 | 0.9 | 1.7 | 0.00 | 0.00 | 0.00 | 78 | 1020.3 |
| 20260507165203 | 56 | 314 | 0.9 | 1.7 | 0.00 | 0.00 | 0.00 | 76 | 1020.3 |
| 20260507164705 | 56 | 316 | 0.9 | 1.7 | 0.00 | 0.00 | 0.00 | 78 | 1020.4 |
| 20260507164204 | 56 | 9 | 0.9 | 2.6 | 0.00 | 0.00 | 0.00 | 79 | 1020.4 |
| 20260507163704 | 55 | 5 | 0.9 | 2.6 | 0.00 | 0.00 | 0.00 | 78 | 1020.4 |
| 20260507163203 | 55 | 9 | 0.9 | 2.6 | 0.00 | 0.00 | 0.00 | 79 | 1020.4 |
| 20260507162704 | 56 | 17 | 0.9 | 2.6 | 0.00 | 0.00 | 0.00 | 79 | 1020.4 |
| 20260507162203 | 56 | 241 | 0.9 | 1.7 | 0.00 | 0.00 | 0.00 | 79 | 1020.4 |
| 20260507161703 | 55 | 273 | 0.9 | 2.6 | 0.00 | 0.00 | 0.00 | 79 | 1020.4 |
| 20260507161203 | 55 | 275 | 0.9 | 2.6 | 0.00 | 0.00 | 0.00 | 79 | 1020.4 |
| 20260507160704 | 55 | 275 | 0.9 | 1.7 | 0.00 | 0.00 | 0.00 | 79 | 1020.4 |
| 20260507160205 | 55 | 188 | 0.0 | 1.7 | 0.00 | 0.00 | 0.00 | 80 | 1020.4 |
| 20260507155709 | 55 | 273 | 0.9 | 1.7 | 0.00 | 0.00 | 0.00 | 81 | 1020.5 |
| 20260507155704 | 55 | 273 | 0.0 | 1.7 | 0.00 | 0.00 | 0.00 | 81 | 1020.4 |
| 20260507154703 | 54 | 273 | 0.9 | 1.7 | 0.00 | 0.00 | 0.00 | 81 | 1020.4 |
| 20260507154204 | 54 | 258 | 0.9 | 1.7 | 0.00 | 0.00 | 0.00 | 82 | 1020.5 |
| 20260507153703 | 54 | 257 | 0.0 | 1.7 | 0.00 | 0.00 | 0.00 | 82 | 1020.6 |
| 20260507153203 | 54 | 257 | 0.0 | 1.7 | 0.00 | 0.00 | 0.00 | 81 | 1020.6 |
| 20260507152705 | 54 | 257 | 0.9 | 1.7 | 0.00 | 0.00 | 0.00 | 81 | 1020.6 |
| 20260507152205 | 53 | 257 | 0.9 | 1.7 | 0.00 | 0.00 | 0.00 | 82 | 1020.6 |
| 20260507151703 | 53 | 258 | 0.0 | 1.7 | 0.00 | 0.00 | 0.00 | 82 | 1020.6 |
| 20260507151204 | 53 | 255 | 0.9 | 2.6 | 0.00 | 0.00 | 0.00 | 83 | 1020.7 |
| 20260507150703 | 53 | 306 | 0.9 | 2.6 | 0.00 | 0.00 | 0.00 | 82 | 1020.6 |
| 20260507150203 | 53 | 261 | 0.9 | 2.6 | 0.00 | 0.00 | 0.00 | 83 | 1020.7 |
| 20260507145704 | 53 | 248 | 0.0 | 2.6 | 0.00 | 0.00 | 0.00 | 83 | 1020.7 |
| 20260507145202 | 53 | 250 | 0.9 | 1.7 | 0.00 | 0.00 | 0.00 | 84 | 1020.6 |
| 20260507144706 | 53 | 261 | 0.0 | 2.6 | 0.00 | 0.00 | 0.00 | 84 | 1020.6 |
| 20260507144702 | 53 | 261 | 0.9 | 1.7 | 0.00 | 0.00 | 0.00 | 83 | 1020.6 |